timestamp,wind_dir_avg,wind_spd_avg,wind_spd_max_dir,wind_spd_gust,battery_voltage,lat,long
2019-12-05 00:04:01+00:00,263.0,11.07,266.0,12.31,12.65,47.59359,-54.27349
2019-12-05 00:14:01+00:00,266.0,13.1,266.0,16.22,12.57,47.59359,-54.27349
2019-12-05 00:24:01+00:00,262.0,11.93,264.0,12.94,12.57,47.59359,-54.27349
2019-12-05 00:34:01+00:00,269.0,11.44,267.0,13.52,12.57,47.59359,-54.27349
2019-12-05 00:44:01+00:00,269.0,11.38,273.0,13.2,12.57,47.59359,-54.27349
2019-12-05 00:54:01+00:00,262.0,9.78,268.0,11.37,12.57,47.59359,-54.27349
2019-12-05 01:04:01+00:00,260.0,9.77,256.0,11.11,12.57,47.59359,-54.27349
2019-12-05 01:14:01+00:00,257.0,9.61,254.0,11.31,12.57,47.59359,-54.27349
2019-12-05 01:24:01+00:00,262.0,10.47,262.0,11.53,12.57,47.59359,-54.27349
2019-12-05 01:34:01+00:00,258.0,10.83,255.0,12.57,12.57,47.59359,-54.27349
2019-12-05 01:44:01+00:00,256.0,10.8,260.0,12.34,12.57,47.59359,-54.27349
2019-12-05 01:54:01+00:00,251.0,9.94,248.0,11.34,12.57,47.59359,-54.27349
2019-12-05 02:04:01+00:00,256.0,10.23,255.0,11.51,12.57,47.59359,-54.27349
2019-12-05 02:14:01+00:00,256.0,9.49,255.0,10.58,12.57,47.59359,-54.27349
2019-12-05 02:24:01+00:00,262.0,11.45,255.0,12.98,12.57,47.59359,-54.27349
2019-12-05 02:34:01+00:00,265.0,9.43,264.0,10.38,12.57,47.59359,-54.27349
2019-12-05 02:44:01+00:00,263.0,9.7,256.0,11.0,12.57,47.59359,-54.27349
2019-12-05 02:54:01+00:00,262.0,9.55,262.0,11.04,12.57,47.59359,-54.27349
2019-12-05 03:04:01+00:00,261.0,10.85,265.0,12.13,12.57,47.59359,-54.27349
2019-12-05 03:14:01+00:00,262.0,9.42,264.0,11.16,12.57,47.59359,-54.27349
2019-12-05 03:24:01+00:00,261.0,7.44,265.0,8.29,12.57,47.59359,-54.27349
2019-12-05 03:34:01+00:00,255.0,10.26,253.0,11.74,12.57,47.59359,-54.27349
2019-12-05 03:44:01+00:00,256.0,8.79,260.0,9.97,12.57,47.59359,-54.27349
2019-12-05 03:54:01+00:00,263.0,9.87,266.0,11.03,12.57,47.59359,-54.27349
2019-12-05 04:04:01+00:00,261.0,9.52,260.0,10.47,12.57,47.59359,-54.27349
2019-12-05 04:14:01+00:00,262.0,8.62,256.0,9.73,12.57,47.59359,-54.27349
2019-12-05 04:24:01+00:00,253.0,9.69,250.0,10.53,12.57,47.59359,-54.27349
2019-12-05 04:34:01+00:00,253.0,9.17,250.0,10.24,12.57,47.59359,-54.27349
2019-12-05 04:44:01+00:00,254.0,9.08,251.0,10.42,12.57,47.59359,-54.27349
2019-12-05 04:54:01+00:00,262.0,10.0,258.0,11.26,12.57,47.59359,-54.27349
2019-12-05 05:04:01+00:00,263.0,8.49,260.0,9.1,12.57,47.59359,-54.27349
2019-12-05 05:14:01+00:00,255.0,8.44,256.0,10.23,12.49,47.59359,-54.27349
2019-12-05 05:24:01+00:00,255.0,9.51,253.0,11.3,12.49,47.59359,-54.27349
2019-12-05 05:34:01+00:00,246.0,7.45,247.0,8.78,12.49,47.59359,-54.27349
2019-12-05 05:44:01+00:00,243.0,8.26,249.0,8.98,12.49,47.59359,-54.27349
2019-12-05 05:54:01+00:00,238.0,8.46,240.0,10.2,12.49,47.59359,-54.27349
2019-12-05 06:04:01+00:00,247.0,8.37,251.0,9.39,12.49,47.59359,-54.27349
2019-12-05 06:14:01+00:00,257.0,8.57,258.0,9.82,12.49,47.59359,-54.27349
2019-12-05 06:24:01+00:00,249.0,7.5,251.0,9.17,12.49,47.59359,-54.27349
2019-12-05 06:34:01+00:00,263.0,7.86,266.0,8.98,12.49,47.59359,-54.27349
2019-12-05 06:44:01+00:00,271.0,7.61,277.0,8.65,12.49,47.59359,-54.27349
2019-12-05 06:54:01+00:00,268.0,7.22,266.0,8.07,12.49,47.59359,-54.27349
2019-12-05 07:04:01+00:00,268.0,6.81,275.0,8.31,12.49,47.59359,-54.27349
2019-12-05 07:14:01+00:00,250.0,7.75,252.0,9.48,12.49,47.59359,-54.27349
2019-12-05 07:24:01+00:00,264.0,6.81,263.0,8.35,12.49,47.59359,-54.27349
2019-12-05 07:34:01+00:00,270.0,5.8,270.0,6.56,12.49,47.59359,-54.27349
2019-12-05 07:44:01+00:00,274.0,6.67,275.0,7.37,12.49,47.59359,-54.27349
2019-12-05 07:54:01+00:00,270.0,4.77,270.0,5.91,12.49,47.59359,-54.27349
2019-12-05 08:04:01+00:00,271.0,4.36,278.0,5.01,12.49,47.59359,-54.27349
2019-12-05 08:14:01+00:00,272.0,3.93,277.0,4.5,12.49,47.59359,-54.27349
2019-12-05 08:24:01+00:00,270.0,2.86,270.0,3.1,12.49,47.59359,-54.27349
2019-12-05 08:34:01+00:00,267.0,2.85,267.0,3.38,12.49,47.59359,-54.27349
2019-12-05 08:44:01+00:00,242.0,1.6,244.0,2.11,12.49,47.59359,-54.27349
2019-12-05 08:54:01+00:00,197.0,1.45,193.0,1.78,12.49,47.59359,-54.27349
2019-12-05 09:04:01+00:00,339.0,0.51,344.0,0.69,12.49,47.59359,-54.27349
2019-12-05 09:14:01+00:00,180.0,0.76,179.0,1.05,12.49,47.59359,-54.27349
2019-12-05 09:24:01+00:00,196.0,1.54,196.0,1.85,12.49,47.59359,-54.27349
2019-12-05 09:34:01+00:00,40.0,2.83,31.0,3.14,12.49,47.59359,-54.27349
2019-12-05 09:44:01+00:00,82.0,2.32,75.0,2.82,12.49,47.59359,-54.27349
2019-12-05 09:54:01+00:00,83.0,2.79,76.0,3.41,12.49,47.59359,-54.27349
2019-12-05 10:04:01+00:00,82.0,4.57,85.0,5.14,12.49,47.59359,-54.27349
2019-12-05 10:14:01+00:00,90.0,3.36,84.0,4.56,12.41,47.59359,-54.27349
2019-12-05 10:24:01+00:00,90.0,3.15,94.0,4.3,12.41,47.59359,-54.27349
2019-12-05 10:34:01+00:00,96.0,2.84,93.0,4.59,12.41,47.59359,-54.27349
2019-12-05 10:44:01+00:00,95.0,2.95,103.0,3.64,12.41,47.59359,-54.27349
2019-12-05 10:54:01+00:00,84.0,4.38,81.0,5.27,12.41,47.59359,-54.27349
2019-12-05 11:04:01+00:00,76.0,6.03,74.0,6.41,12.41,47.59359,-54.27349
2019-12-05 11:14:01+00:00,66.0,7.07,63.0,7.86,12.41,47.59359,-54.27349
2019-12-05 11:24:01+00:00,64.0,8.11,65.0,9.17,12.41,47.59359,-54.27349
2019-12-05 11:34:01+00:00,84.0,8.4,84.0,9.67,12.41,47.59359,-54.27349
2019-12-05 11:44:01+00:00,85.0,9.14,84.0,10.15,12.41,47.59359,-54.27349
2019-12-05 11:54:01+00:00,82.0,9.38,82.0,10.85,12.41,47.59359,-54.27349
2019-12-05 12:04:01+00:00,81.0,10.76,81.0,12.28,12.41,47.59359,-54.27349
2019-12-05 12:14:01+00:00,84.0,11.78,86.0,13.35,12.41,47.59359,-54.27349
2019-12-05 12:24:01+00:00,81.0,9.9,86.0,11.45,12.41,47.59359,-54.27349
2019-12-05 12:34:01+00:00,88.0,9.28,87.0,11.81,12.41,47.59359,-54.27349
2019-12-05 12:44:01+00:00,87.0,4.92,77.0,6.95,12.41,47.59359,-54.27349
2019-12-05 12:54:01+00:00,91.0,7.87,81.0,10.5,12.41,47.59359,-54.27349
2019-12-05 13:04:01+00:00,86.0,8.41,88.0,10.46,12.41,47.59359,-54.27349
2019-12-05 13:14:01+00:00,92.0,7.07,79.0,9.87,12.41,47.59359,-54.27349
2019-12-05 13:24:01+00:00,90.0,8.07,83.0,10.88,12.41,47.59359,-54.27349
2019-12-05 13:34:01+00:00,85.0,10.05,85.0,12.37,12.41,47.59359,-54.27349
2019-12-05 13:44:01+00:00,77.0,10.88,75.0,12.04,12.41,47.59359,-54.27349
2019-12-05 13:54:01+00:00,63.0,10.79,67.0,12.06,12.41,47.59359,-54.27349
2019-12-05 14:04:01+00:00,73.0,11.33,74.0,13.11,12.41,47.59359,-54.27349
2019-12-05 15:14:01+00:00,70.0,10.43,68.0,12.37,12.65,47.59359,-54.27349
2019-12-05 15:24:01+00:00,67.0,12.3,66.0,13.83,12.65,47.59359,-54.27349
2019-12-05 15:34:01+00:00,61.0,10.86,60.0,12.22,12.65,47.59359,-54.27349
2019-12-05 15:44:01+00:00,59.0,11.5,58.0,12.66,12.65,47.59359,-54.27349
2019-12-05 15:54:01+00:00,60.0,11.73,61.0,12.98,12.65,47.59359,-54.27349
2019-12-05 16:04:01+00:00,43.0,9.24,44.0,10.68,12.65,47.59359,-54.27349
2019-12-05 16:14:01+00:00,16.0,10.05,16.0,11.12,12.65,47.59359,-54.27349
2019-12-05 16:24:01+00:00,323.0,9.98,323.0,11.77,12.65,47.59359,-54.27349
2019-12-05 16:34:01+00:00,327.0,11.15,331.0,13.08,12.65,47.59359,-54.27349
2019-12-05 16:44:01+00:00,331.0,13.45,334.0,15.07,12.65,47.59359,-54.27349
2019-12-05 16:54:01+00:00,338.0,14.52,345.0,17.07,12.65,47.59359,-54.27349
2019-12-05 17:04:01+00:00,346.0,12.28,354.0,14.49,12.65,47.59359,-54.27349
2019-12-05 17:14:01+00:00,338.0,12.27,333.0,14.32,13.6,47.59359,-54.27349
2019-12-05 17:24:01+00:00,338.0,11.22,343.0,14.22,13.6,47.59359,-54.27349
2019-12-05 17:34:01+00:00,333.0,11.65,341.0,16.64,13.6,47.59359,-54.27349
2019-12-05 17:44:01+00:00,334.0,9.41,339.0,11.41,13.6,47.59359,-54.27349
2019-12-05 17:54:01+00:00,336.0,9.92,343.0,11.11,13.6,47.59359,-54.27349
2019-12-05 18:04:01+00:00,331.0,7.62,333.0,8.76,13.6,47.59359,-54.27349
2019-12-05 18:14:01+00:00,331.0,7.24,335.0,8.13,13.6,47.59359,-54.27349
2019-12-05 18:24:01+00:00,314.0,5.02,304.0,7.94,13.6,47.59359,-54.27349
2019-12-05 18:34:01+00:00,321.0,6.23,314.0,7.94,13.6,47.59359,-54.27349
2019-12-05 18:44:01+00:00,295.0,8.2,295.0,10.19,13.6,47.59359,-54.27349
2019-12-05 18:54:01+00:00,303.0,6.17,300.0,7.81,13.6,47.59359,-54.27349
2019-12-05 19:04:01+00:00,310.0,7.14,313.0,8.96,13.6,47.59359,-54.27349
2019-12-05 19:14:01+00:00,308.0,7.81,304.0,9.34,13.13,47.59359,-54.27349
2019-12-05 19:24:01+00:00,303.0,7.75,298.0,9.1,13.13,47.59359,-54.27349
2019-12-05 19:34:01+00:00,311.0,6.79,314.0,7.82,13.13,47.59359,-54.27349
2019-12-05 19:44:01+00:00,307.0,5.02,308.0,5.45,13.13,47.59359,-54.27349
2019-12-05 19:54:01+00:00,300.0,6.44,307.0,7.54,13.13,47.59359,-54.27349
2019-12-05 20:04:01+00:00,310.0,6.98,311.0,7.97,13.13,47.59359,-54.27349
2019-12-05 20:14:01+00:00,287.0,5.89,290.0,6.49,12.73,47.59359,-54.27349
2019-12-05 20:24:01+00:00,286.0,5.32,286.0,6.11,12.73,47.59359,-54.27349
2019-12-05 20:34:01+00:00,283.0,4.18,288.0,4.62,12.73,47.59359,-54.27349
2019-12-05 20:44:01+00:00,278.0,4.62,276.0,5.04,12.73,47.59359,-54.27349
2019-12-05 20:54:01+00:00,263.0,4.3,260.0,4.9,12.73,47.59359,-54.27349
2019-12-05 21:04:01+00:00,277.0,6.69,282.0,7.39,12.73,47.59359,-54.27349
2019-12-05 21:14:01+00:00,271.0,6.93,273.0,7.86,12.65,47.59359,-54.27349
2019-12-05 21:24:01+00:00,259.0,5.59,256.0,6.31,12.65,47.59359,-54.27349
2019-12-05 21:34:01+00:00,262.0,5.57,267.0,6.18,12.65,47.59359,-54.27349
2019-12-05 21:44:01+00:00,268.0,5.33,268.0,6.01,12.65,47.59359,-54.27349
2019-12-05 21:54:01+00:00,266.0,4.74,264.0,5.76,12.65,47.59359,-54.27349
2019-12-05 22:04:01+00:00,265.0,5.39,263.0,6.15,12.65,47.59359,-54.27349
2019-12-05 22:14:01+00:00,269.0,5.78,272.0,6.59,12.65,47.59359,-54.27349
2019-12-05 22:24:01+00:00,269.0,6.1,273.0,6.8,12.65,47.59359,-54.27349
2019-12-05 22:34:01+00:00,266.0,6.3,266.0,7.24,12.65,47.59359,-54.27349
2019-12-05 22:44:01+00:00,264.0,5.66,264.0,6.47,12.65,47.59359,-54.27349
2019-12-05 22:54:01+00:00,263.0,5.32,265.0,6.28,12.65,47.59359,-54.27349
2019-12-05 23:04:01+00:00,261.0,4.78,259.0,5.92,12.65,47.59359,-54.27349
2019-12-05 23:14:01+00:00,239.0,4.0,239.0,4.73,12.57,47.59359,-54.27349
2019-12-05 23:24:01+00:00,266.0,3.58,268.0,4.63,12.57,47.59359,-54.27349
2019-12-05 23:34:01+00:00,239.0,4.75,237.0,5.41,12.57,47.59359,-54.27349
2019-12-05 23:44:01+00:00,270.0,4.78,268.0,5.44,12.57,47.59359,-54.27349
2019-12-05 23:54:01+00:00,264.0,5.77,268.0,6.25,12.57,47.59359,-54.27349
